GW2597 Weather Reports


time (UTC)temp
C
wind
direction
speed
KPH
gust
KPH
rain 1hr
cm
rain 24hr
cm
rain mn
cm
humidity
%
barometer
mb
20260507070607 8 300 4.8 4.8 0.00 0.00 0.00 88 1008.3
20260507070104 8 306 4.8 6.4 0.00 0.00 0.00 88 1008.3
20260507065600 8 294 4.8 4.8 0.00 0.00 0.00 88 1008.8
20260507065057 8 294 6.4 6.4 0.00 0.00 0.00 88 1008.3
20260507064555 9 306 3.2 3.2 0.00 0.00 0.00 87 1008.3
20260507064054 9 270 8.0 8.0 0.00 0.00 0.00 87 1008.3
20260507063550 9 336 4.8 4.8 0.00 0.00 0.00 87 1009.1
20260507063048 9 312 4.8 4.8 0.00 0.00 0.00 87 1008.3
20260507062544 9 306 6.4 6.4 0.00 0.00 0.00 87 1008.0
20260507062042 9 300 8.0 9.7 0.00 0.00 0.00 87 1008.3
20260507061539 9 324 6.4 6.4 0.00 0.00 0.00 87 1008.3
20260507061037 9 300 6.4 8.0 0.00 0.00 0.00 88 1008.8
20260507060535 9 276 6.4 6.4 0.00 0.00 0.00 89 1008.8
20260507060031 9 282 6.4 6.4 0.00 0.00 0.00 89 1008.3
20260507055526 9 270 3.2 3.2 0.00 0.00 0.00 89 1008.3
20260507055022 9 294 3.2 3.2 0.00 0.00 0.00 89 1009.1
20260507054518 9 282 3.2 3.2 0.00 0.00 0.00 89 1009.1
20260507054015 9 282 4.8 4.8 0.00 0.00 0.00 89 1008.8
20260507053514 9 288 3.2 3.2 0.00 0.00 0.00 89 1008.8
20260507053012 9 282 3.2 3.2 0.00 0.00 0.00 89 1008.8
20260507052509 9 294 3.2 3.2 0.00 0.00 0.00 89 1009.1
20260507052006 9 300 4.8 4.8 0.00 0.00 0.00 89 1009.1
20260507051504 9 294 4.8 4.8 0.00 0.00 0.00 89 1009.1
20260507051000 9 306 4.8 6.4 0.00 0.00 0.00 90 1008.8
20260507050456 9 294 3.2 3.2 0.00 0.00 0.00 90 1009.1
20260507045953 9 300 4.8 4.8 0.00 0.00 0.00 90 1008.8
20260507045450 9 306 4.8 4.8 0.00 0.00 0.00 89 1008.8
20260507044948 9 312 3.2 3.2 0.00 0.00 0.00 89 1009.1
20260507044444 10 312 3.2 3.2 0.00 0.00 0.00 89 1009.1
20260507043940 10 318 1.6 1.6 0.00 0.00 0.00 89 1008.8
20260507043436 10 18 0.0 0.0 0.00 0.00 0.00 89 1008.8
20260507042933 10 318 0.0 0.0 0.00 0.00 0.00 90 1009.1
20260507042430 10 336 4.8 4.8 0.00 0.00 0.00 90 1009.1
20260507041925 10 312 3.2 3.2 0.00 0.00 0.00 90 1009.1
20260507041422 10 342 6.4 6.4 0.00 0.00 0.00 90 1009.1
20260507040920 10 318 3.2 3.2 0.00 0.00 0.00 90 1009.1
20260507040415 10 300 3.2 3.2 0.00 0.00 0.00 90 1008.8
20260507035911 10 312 3.2 3.2 0.03 0.43 0.43 90 1008.8
20260507035408 10 306 3.2 3.2 0.03 0.43 0.43 89 1008.8
20260507034905 11 330 3.2 3.2 0.03 0.43 0.43 90 1008.8
20260507034401 11 312 3.2 3.2 0.03 0.43 0.43 91 1008.3
20260507033859 11 294 4.8 4.8 0.03 0.43 0.43 91 1008.8
20260507033358 11 294 4.8 6.4 0.03 0.43 0.43 92 1008.8
20260507032854 11 300 4.8 4.8 0.03 0.43 0.43 91 1008.3
20260507032351 11 296 4.8 4.8 0.03 0.43 0.43 91 1008.3
20260507031847 11 300 6.4 6.4 0.03 0.43 0.43 91 1008.3
20260507031344 11 306 6.4 6.4 0.03 0.43 0.43 91 1008.0
20260507030840 11 312 4.8 4.8 0.03 0.43 0.43 91 1007.6
20260507030338 12 300 8.0 9.7 0.03 0.43 0.43 91 1008.0
20260507025834 12 306 9.7 9.7 0.03 0.38 0.38 90 1008.0
20260507025332 12 312 4.8 4.8 0.03 0.38 0.38 91 1008.0
20260507024830 12 342 6.4 8.0 0.03 0.38 0.38 91 1008.3
20260507024327 13 306 4.8 4.8 0.00 0.36 0.36 91 1008.0
20260507023822 13 294 9.7 9.7 0.00 0.36 0.36 91 1008.0
20260507023319 13 294 4.8 4.8 0.00 0.36 0.36 90 1008.0
20260507022817 13 306 6.4 6.4 0.00 0.36 0.36 91 1008.0
20260507022313 13 300 6.4 6.4 0.00 0.36 0.36 91 1007.6
20260507021809 13 300 3.2 3.2 0.00 0.36 0.36 92 1007.6
20260507021305 13 312 4.8 4.8 0.00 0.36 0.36 94 1007.6
20260507020803 14 318 0.0 0.0 0.00 0.36 0.36 95 1007.6
20260507020259 14 346 0.0 0.0 0.00 0.36 0.36 95 1007.6
20260507015757 14 346 0.0 0.0 0.00 0.36 0.36 95 1007.3
20260507015254 14 346 0.0 0.0 0.00 0.36 0.36 95 1007.3
20260507014751 14 346 0.0 0.0 0.00 0.36 0.36 95 1007.3
20260507014247 14 346 0.0 0.0 0.00 0.36 0.36 95 1007.3
20260507013744 14 346 0.0 0.0 0.00 0.36 0.36 95 1007.0
20260507013241 14 346 0.0 0.0 0.00 0.36 0.36 95 1007.3
20260507012738 14 346 0.0 0.0 0.00 0.36 0.36 95 1007.3
20260507012233 14 346 0.0 0.0 0.00 0.36 0.36 95 1007.0
20260507011731 14 346 3.2 3.2 0.00 0.36 0.36 95 1007.3
20260507011228 14 348 0.0 0.0 0.00 0.36 0.36 95 1007.3
20260507010722 14 348 0.0 0.0 0.00 0.36 0.36 95 1007.3
20260507010218 14 0 0.0 0.0 0.00 0.36 0.36 95 1007.3
20260507005716 14 0 0.0 0.0 0.00 0.36 0.36 95 1007.3
20260507005212 14 0 0.0 0.0 0.00 0.36 0.36 95 1007.3
20260507004709 14 354 0.0 0.0 0.00 0.36 0.36 95 1007.3
20260507004206 14 354 0.0 0.0 0.00 0.36 0.36 95 1007.3
20260507003702 14 354 0.0 0.0 0.00 0.36 0.36 95 1007.0
20260507003158 14 354 0.0 0.0 0.00 0.36 0.36 95 1006.6
20260507002654 14 354 0.0 0.0 0.00 0.36 0.36 95 1006.6
20260507002150 14 0 0.0 0.0 0.00 0.36 0.36 95 1007.0
20260507001647 14 0 0.0 0.0 0.00 0.36 0.36 95 1007.0
20260507001144 14 336 0.0 0.0 0.00 0.36 0.36 95 1007.0
20260507000641 14 336 0.0 0.0 0.00 0.36 0.36 95 1007.0
20260507000136 14 6 0.0 0.0 0.00 0.36 0.36 95 1006.6
20260506235634 14 6 0.0 0.0 0.00 0.36 0.36 95 1007.0
20260506235133 14 6 0.0 0.0 0.00 0.36 0.36 95 1006.6
20260506234631 14 18 0.0 0.0 0.00 0.36 0.36 95 1006.6
20260506234128 14 0 0.0 0.0 0.00 0.36 0.36 95 1007.0
20260506233625 14 36 0.0 0.0 0.00 0.36 0.36 94 1006.3
20260506233122 14 36 0.0 0.0 0.00 0.36 0.36 94 1006.6
20260506232618 14 264 0.0 0.0 0.00 0.36 0.36 94 1006.6
20260506232114 14 264 0.0 0.0 0.00 0.36 0.36 94 1006.6
20260506231611 14 162 0.0 0.0 0.00 0.36 0.36 94 1007.0
20260506231109 14 126 0.0 0.0 0.00 0.36 0.36 94 1006.6
20260506230606 14 174 0.0 0.0 0.00 0.36 0.36 94 1007.0
20260506230103 14 180 0.0 0.0 0.00 0.36 0.36 94 1007.0
20260506225559 14 198 0.0 0.0 0.00 0.36 0.36 94 1007.0
20260506225056 14 198 0.0 0.0 0.00 0.36 0.36 94 1007.0
20260506224553 14 198 0.0 0.0 0.00 0.36 0.36 94 1007.0
20260506224049 14 198 3.2 3.2 0.00 0.36 0.36 94 1007.0
20260506223545 14 198 0.0 0.0 0.00 0.36 0.36 94 1007.0
20260506223042 14 6 0.0 0.0 0.00 0.36 0.36 94 1007.0
20260506222539 15 6 0.0 0.0 0.00 0.36 0.36 94 1007.0
20260506222035 15 12 3.2 3.2 0.00 0.36 0.36 94 1007.3
20260506221533 15 12 0.0 0.0 0.00 0.36 0.36 94 1007.0
20260506221031 15 12 0.0 0.0 0.00 0.36 0.36 94 1007.3
20260506220526 15 14 0.0 0.0 0.00 0.36 0.36 94 1007.0
20260506220022 15 14 0.0 0.0 0.00 0.36 0.36 94 1007.3
20260506215519 15 14 0.0 0.0 0.03 0.36 0.36 94 1007.0
20260506215015 15 14 0.0 0.0 0.03 0.36 0.36 94 1007.3
20260506214512 15 18 0.0 0.0 0.03 0.36 0.36 94 1007.0
20260506214009 15 6 0.0 0.0 0.03 0.36 0.36 94 1007.3
20260506213507 15 6 0.0 0.0 0.03 0.36 0.36 94 1007.0
20260506213004 15 297 0.0 0.0 0.03 0.36 0.36 94 1007.0
20260506212500 15 48 0.0 0.0 0.00 0.30 0.30 94 1007.0
20260506211955 15 48 0.0 0.0 0.00 0.30 0.30 94 1007.0
20260506211451 15 324 0.0 0.0 0.00 0.30 0.30 94 1007.3
20260506210949 15 342 0.0 0.0 0.00 0.30 0.30 94 1007.3
20260506210445 15 328 0.0 0.0 0.00 0.30 0.30 94 1007.3
20260506205942 15 324 3.2 3.2 0.08 0.30 0.30 94 1007.3
20260506205438 15 48 0.0 0.0 0.03 0.28 0.28 94 1007.3
20260506204934 15 264 0.0 0.0 0.03 0.28 0.28 93 1007.3
20260506204432 15 262 1.6 1.6 0.03 0.28 0.28 93 1007.6
20260506203930 15 294 0.0 0.0 0.03 0.28 0.28 93 1007.3
20260506203427 15 252 0.0 0.0 0.03 0.28 0.28 93 1007.6
20260506202924 15 354 0.0 0.0 0.03 0.28 0.28 93 1007.6
20260506202421 15 6 0.0 0.0 0.03 0.28 0.28 93 1007.3
20260506201917 15 352 0.0 0.0 0.00 0.23 0.23 93 1007.6
20260506201415 15 352 0.0 0.0 0.00 0.23 0.23 93 1007.6
20260506200911 16 312 1.6 1.6 0.00 0.23 0.23 93 1007.6
20260506200407 15 318 0.0 0.0 0.00 0.23 0.23 92 1007.6
20260506195904 15 6 0.0 0.0 0.03 0.23 0.23 92 1008.0
20260506195401 15 186 0.0 0.0 0.03 0.23 0.23 92 1008.0
20260506194858 16 108 0.0 0.0 0.03 0.23 0.23 92 1008.0
20260506194355 15 306 0.0 0.0 0.00 0.18 0.18 92 1008.0
20260506193852 16 282 3.2 3.2 0.00 0.18 0.18 92 1008.0
20260506193349 16 300 4.8 4.8 0.00 0.18 0.18 92 1008.0
20260506192845 16 228 0.0 0.0 0.00 0.18 0.18 92 1008.0
20260506192342 16 234 0.0 0.0 0.00 0.18 0.18 92 1008.0
20260506191839 16 312 3.2 3.2 0.00 0.18 0.18 92 1008.0
20260506191335 16 306 0.0 0.0 0.00 0.18 0.18 92 1007.6
20260506190832 16 306 0.0 0.0 0.00 0.18 0.18 92 1007.6
20260506190328 16 306 0.0 0.0 0.00 0.18 0.18 92 1007.6
20260506185826 16 48 0.0 0.0 0.10 0.18 0.18 92 1008.0
20260506185322 16 48 0.0 0.0 0.10 0.18 0.18 92 1008.0
20260506184820 16 264 0.0 0.0 0.10 0.18 0.18 92 1008.0
20260506184317 15 264 0.0 0.0 0.10 0.18 0.18 92 1008.3
20260506183814 15 264 0.0 0.0 0.08 0.15 0.15 91 1008.3
20260506183309 15 264 3.2 3.2 0.08 0.15 0.15 91 1008.3
20260506182806 16 264 0.0 0.0 0.08 0.15 0.15 91 1008.8
20260506182306 16 264 0.0 0.0 0.03 0.10 0.10 90 1008.8
20260506181801 16 264 0.0 0.0 0.03 0.10 0.10 89 1008.3
20260506181259 16 264 3.2 3.2 0.03 0.10 0.10 89 1008.8
20260506180756 16 264 4.8 4.8 0.00 0.08 0.08 88 1008.8
20260506180252 16 270 3.2 3.2 0.00 0.08 0.08 87 1009.1
20260506175748 16 276 3.2 3.2 0.03 0.03 0.03 86 1008.8
20260506175245 16 282 4.8 4.8 0.03 0.03 0.03 85 1009.1
20260506174743 17 276 4.8 4.8 0.00 0.00 0.00 82 1009.1
20260506174239 17 270 6.4 6.4 0.00 0.00 0.00 78 1009.1
20260506173737 18 270 4.8 4.8 0.00 0.00 0.00 74 1009.1
20260506173234 18 276 4.8 6.4 0.00 0.00 0.00 72 1009.1
20260506172731 19 282 6.4 6.4 0.00 0.00 0.00 70 1008.8
20260506172227 19 282 6.4 8.0 0.00 0.00 0.00 66 1008.8
20260506171725 20 270 3.2 3.2 0.00 0.00 0.00 65 1008.3
20260506171222 20 246 8.0 9.7 0.00 0.00 0.00 64 1008.8
20260506170719 20 282 6.4 6.4 0.00 0.00 0.00 63 1008.3
20260506170216 20 278 8.0 8.0 0.00 0.00 0.00 62 1008.3
20260506165714 20 290 6.4 6.4 0.00 0.00 0.00 63 1008.8
20260506165211 20 234 3.2 3.2 0.00 0.00 0.00 64 1008.8
20260506164708 20 264 4.8 6.4 0.00 0.00 0.00 65 1009.1
20260506164205 20 348 6.4 6.4 0.00 0.00 0.00 66 1008.8
20260506163701 20 306 0.0 0.0 0.00 0.00 0.00 66 1009.1
20260506163157 20 270 1.6 1.6 0.00 0.00 0.00 66 1009.1
20260506162653 20 346 3.2 3.2 0.00 0.00 0.00 68 1009.1
20260506162150 20 324 3.2 3.2 0.00 0.00 0.00 68 1009.1
20260506161647 20 341 0.0 0.0 0.00 0.00 0.00 68 1009.1
20260506161144 20 324 4.8 4.8 0.00 0.00 0.00 67 1009.1
20260506160642 20 0 0.0 0.0 0.00 0.00 0.00 67 1009.1
20260506160139 21 0 3.2 3.2 0.00 0.00 0.00 65 1009.4
20260506155637 20 15 0.0 0.0 0.00 0.00 0.00 68 1009.4
20260506155134 20 342 0.0 0.0 0.00 0.00 0.00 70 1009.8
20260506153236 20 354 3.2 3.2 0.00 0.00 0.00 69 1009.8
20260506152733 20 354 0.0 0.0 0.00 0.00 0.00 69 1010.1
20260506152230 20 48 0.0 0.0 0.00 0.00 0.00 69 1010.1
20260506151730 20 342 4.8 4.8 0.00 0.00 0.00 68 1010.1
20260506151225 20 342 0.0 0.0 0.00 0.00 0.00 68 1010.1
20260506150722 20 7 0.0 0.0 0.00 0.00 0.00 68 1010.5
20260506150219 20 288 3.2 3.2 0.00 0.00 0.00 68 1010.5
20260506145716 20 270 0.0 0.0 0.00 0.00 0.00 68 1010.1
20260506145213 20 251 0.0 0.0 0.00 0.00 0.00 69 1009.8
20260506144710 19 297 4.8 6.4 0.00 0.00 0.00 69 1010.1
20260506144207 19 300 0.0 0.0 0.00 0.00 0.00 69 1010.1
20260506143705 20 290 3.2 3.2 0.00 0.00 0.00 70 1010.1
20260506143202 20 291 6.4 6.4 0.00 0.00 0.00 69 1010.5
20260506142701 20 342 3.2 3.2 0.00 0.00 0.00 67 1010.1
20260506142158 19 306 0.0 0.0 0.00 0.00 0.00 69 1010.1
20260506141656 19 321 0.0 0.0 0.00 0.00 0.00 72 1010.1
20260506141154 19 270 0.0 0.0 0.00 0.00 0.00 71 1010.1
20260506140651 18 24 1.6 1.6 0.00 0.00 0.00 72 1010.1
20260506140148 18 330 0.0 0.0 0.00 0.00 0.00 74 1009.8
20260506135645 18 348 0.0 0.0 0.00 0.00 0.00 74 1009.8
20260506135141 18 348 0.0 0.0 0.00 0.00 0.00 76 1010.1
20260506134638 18 12 3.2 3.2 0.00 0.00 0.00 75 1010.1
20260506134134 17 300 0.0 0.0 0.00 0.00 0.00 76 1010.5
20260506133631 17 36 0.0 0.0 0.00 0.00 0.00 77 1010.5
20260506133128 17 317 0.0 0.0 0.00 0.00 0.00 77 1010.5
20260506132626 17 4 0.0 0.0 0.00 0.00 0.00 77 1010.5
20260506132122 17 120 0.0 0.0 0.00 0.00 0.00 78 1010.5
20260506131620 17 312 3.2 3.2 0.00 0.00 0.00 78 1010.5
20260506131116 17 288 0.0 0.0 0.00 0.00 0.00 79 1010.5
20260506130613 17 288 0.0 0.0 0.00 0.00 0.00 79 1010.5
20260506130110 17 36 0.0 0.0 0.00 0.00 0.00 79 1010.8
20260506125609 17 36 0.0 0.0 0.00 0.00 0.00 80 1010.5
20260506125106 17 330 0.0 0.0 0.00 0.00 0.00 80 1010.5
20260506124603 16 330 1.6 1.6 0.00 0.00 0.00 80 1010.5
20260506124101 16 297 0.0 0.0 0.00 0.00 0.00 80 1010.5
20260506123558 16 297 0.0 0.0 0.00 0.00 0.00 80 1010.5
20260506123057 16 317 0.0 0.0 0.00 0.00 0.00 80 1010.8
20260506122553 16 340 0.0 0.0 0.00 0.00 0.00 81 1010.5
20260506122051 16 336 3.2 3.2 0.00 0.00 0.00 81 1010.5
20260506121549 15 294 0.0 0.0 0.00 0.00 0.00 81 1010.5
20260506121044 15 294 1.6 1.6 0.00 0.00 0.00 82 1010.8
20260506120543 15 294 0.0 0.0 0.00 0.00 0.00 81 1010.8
20260506120040 15 324 0.0 0.0 0.00 0.00 0.00 81 1010.8
20260506115538 15 324 0.0 0.0 0.00 0.00 0.00 81 1010.8
20260506115036 15 78 3.2 3.2 0.00 0.00 0.00 82 1010.8
20260506114533 15 24 0.0 0.0 0.00 0.00 0.00 83 1010.8
20260506114032 15 24 0.0 0.0 0.00 0.00 0.00 83 1011.1
20260506113529 15 306 0.0 0.0 0.00 0.00 0.00 84 1011.1
20260506113026 15 306 0.0 0.0 0.00 0.00 0.00 84 1010.8
20260506112522 14 306 0.0 0.0 0.00 0.00 0.00 84 1011.1
20260506112020 14 222 0.0 0.0 0.00 0.00 0.00 84 1011.1
20260506111518 14 222 0.0 0.0 0.00 0.00 0.00 84 1011.1
20260506111015 14 222 0.0 0.0 0.00 0.00 0.00 84 1011.1
20260506110513 14 222 0.0 0.0 0.00 0.00 0.00 84 1010.8
20260506110010 13 222 0.0 0.0 0.00 0.00 0.00 85 1010.8
20260506105505 13 222 0.0 0.0 0.00 0.00 0.00 85 1011.1
20260506105003 13 222 0.0 0.0 0.00 0.00 0.00 86 1011.1
20260506104501 13 222 0.0 0.0 0.00 0.00 0.00 86 1011.1
20260506103959 13 222 0.0 0.0 0.00 0.00 0.00 86 1011.1
20260506103455 13 222 0.0 0.0 0.00 0.00 0.00 86 1011.1
20260506102952 13 222 0.0 0.0 0.00 0.00 0.00 86 1011.1
20260506102450 12 222 0.0 0.0 0.00 0.00 0.00 86 1010.8
20260506101947 12 222 0.0 0.0 0.00 0.00 0.00 86 1010.8
20260506101444 13 216 0.0 0.0 0.00 0.00 0.00 86 1010.8
20260506100941 13 216 0.0 0.0 0.00 0.00 0.00 85 1010.8
20260506100439 12 216 0.0 0.0 0.00 0.00 0.00 85 1011.1
20260506095937 12 216 0.0 0.0 0.00 0.00 0.00 86 1010.8
20260506095436 12 216 0.0 0.0 0.00 0.00 0.00 85 1010.8
20260506094931 12 216 0.0 0.0 0.00 0.00 0.00 85 1010.8
20260506094430 12 216 0.0 0.0 0.00 0.00 0.00 85 1011.1
20260506093927 12 216 0.0 0.0 0.00 0.00 0.00 85 1011.1
20260506093425 13 216 0.0 0.0 0.00 0.00 0.00 84 1010.8
20260506092923 13 216 0.0 0.0 0.00 0.00 0.00 84 1010.8
20260506092420 13 216 0.0 0.0 0.00 0.00 0.00 84 1010.5
20260506091916 13 216 0.0 0.0 0.00 0.00 0.00 83 1010.8
20260506091415 13 216 0.0 0.0 0.00 0.00 0.00 83 1010.8
20260506090912 13 204 0.0 0.0 0.00 0.00 0.00 83 1010.8
20260506090409 13 204 0.0 0.0 0.00 0.00 0.00 83 1010.8
20260506085906 13 204 0.0 0.0 0.00 0.00 0.00 83 1010.8
20260506085403 13 204 0.0 0.0 0.00 0.00 0.00 83 1010.8
20260506084859 13 204 0.0 0.0 0.00 0.00 0.00 82 1011.1
20260506084355 13 204 0.0 0.0 0.00 0.00 0.00 82 1010.8
20260506083852 13 204 0.0 0.0 0.00 0.00 0.00 81 1010.8
20260506083350 13 204 0.0 0.0 0.00 0.00 0.00 81 1010.8
20260506082847 13 204 0.0 0.0 0.00 0.00 0.00 80 1010.8
20260506082344 14 204 0.0 0.0 0.00 0.00 0.00 79 1010.8
20260506081839 14 204 0.0 0.0 0.00 0.00 0.00 79 1010.8
20260506081338 14 204 0.0 0.0 0.00 0.00 0.00 79 1010.8
20260506080835 14 204 0.0 0.0 0.00 0.00 0.00 79 1010.8
20260506080331 14 204 0.0 0.0 0.00 0.00 0.00 78 1010.8
20260506073316 15 204 0.0 0.0 0.00 0.00 0.00 75 1010.8
20260506072812 15 204 0.0 0.0 0.00 0.00 0.00 73 1010.8
20260506072310 15 300 0.0 0.0 0.00 0.00 0.00 73 1010.5
20260506071808 15 300 1.6 1.6 0.00 0.00 0.00 73 1010.5
20260506071306 15 312 0.0 0.0 0.00 0.00 0.00 72 1010.8
20260506070802 15 342 0.0 0.0 0.00 0.00 0.00 72 1010.8